Weather History for Russellville, AR

Change the Weather History Date:

Tuesday, June 18, 2013

  Actual Average (KHOT) Record (KHOT)
Temperature  
Mean Temperature 78 °F -  
Max Temperature 88 °F 89 °F 102 °F (1985)
Min Temperature 69 °F 66 °F 54 °F (1978)
Cooling Degree Days 13    
Growing Degree Days 28 (Base 50)    
Moisture  
Dew Point 67 °F    
Average Humidity 74    
Maximum Humidity 97    
Minimum Humidity 48    
Precipitation  
Precipitation 0.28 in - - ()
Sea Level Pressure  
Sea Level Pressure 29.95 in    
Wind  
Wind Speed 2 mph (NNE)    
Max Wind Speed 7 mph    
Max Gust Speed -    
Visibility 10 miles    
Events      
Averages and records for this station are not official NWS values.
T = Trace of Precipitation, MM = Missing Value Source: NWS Daily Summary

Daily Weather History Graph

Daily Weather History Graph

Search for Another Location

Airport:

Trip Planner

Search our weather history database for the weather conditions in past years. The results will help you decide how hot, cold, wet, or windy it might be!

Date:

Astronomy

Jun. 18, 2013 Rise Set
Actual Time 5:57 AM CDT 8:29 PM CDT
Civil Twilight 5:27 AM CDT 8:59 PM CDT
Nautical Twilight 4:50 AM CDT 9:36 PM CDT
Astronomical Twilight 4:09 AM CDT 10:17 PM CDT
Moon 3:22 PM CDT (6/18) 1:56 AM CDT (6/18)
Length of Visible Light 15h 31m
Length of Day
14h 32m
Waxing Gibbous, 71% of the Moon is Illuminated
Jun 18
Waxing Gibbous
Jun 23
Full
Jun 29
Last Quarter
Jul 8
New
Jul 15
First Quarter

Hourly Weather History & Observations

Time (CDT) Temp. Heat Index Dew Point Humidity Pressure Visibility Wind Dir Wind Speed Gust Speed Precip Events Conditions
12:53 AM 72.0 °F - 69.1 °F 91% 29.92 in 10.0 mi Calm Calm - N/A   Mostly Cloudy
1:53 AM 70.0 °F - 69.1 °F 97% 29.91 in 8.0 mi Calm Calm - N/A   Mostly Cloudy
2:53 AM 71.1 °F - 69.1 °F 93% 29.90 in 10.0 mi Calm Calm - N/A   Mostly Cloudy
3:00 AM 71.6 °F - 69.8 °F 94% 29.91 in 10.0 mi Calm Calm - N/A   Mostly Cloudy
3:53 AM 72.0 °F - 68.0 °F 87% 29.88 in 10.0 mi Calm Calm - N/A   Overcast
4:53 AM 71.1 °F - 66.9 °F 87% 29.91 in 10.0 mi North 5.8 mph - N/A   Overcast
5:46 AM 69.8 °F - 66.2 °F 88% 29.94 in 10.0 mi North 6.9 mph - N/A   Scattered Clouds
5:53 AM 70.0 °F - 66.0 °F 87% 29.92 in 10.0 mi NNW 5.8 mph - N/A   Partly Cloudy
6:53 AM 71.1 °F - 66.0 °F 84% 29.94 in 10.0 mi NNW 5.8 mph - N/A   Clear
7:53 AM 73.9 °F - 66.9 °F 79% 29.97 in 10.0 mi North 4.6 mph - N/A   Clear
8:53 AM 77.0 °F - 66.9 °F 71% 29.98 in 10.0 mi Variable 3.5 mph - N/A   Clear
9:53 AM 79.0 °F - 66.9 °F 66% 29.99 in 10.0 mi Calm Calm - 0.28 in   Scattered Clouds
10:38 AM 78.8 °F - 66.2 °F 65% 30.00 in 10.0 mi Calm Calm - N/A   Mostly Cloudy
10:53 AM 80.1 °F 82.1 °F 66.0 °F 62% 29.98 in 10.0 mi Calm Calm - N/A   Scattered Clouds
11:53 AM 82.0 °F 84.1 °F 66.0 °F 58% 29.98 in 10.0 mi ESE 3.5 mph - N/A   Clear
12:53 PM 84.0 °F 86.5 °F 66.9 °F 56% 29.98 in 10.0 mi Variable 3.5 mph - N/A   Scattered Clouds
1:53 PM 86.0 °F 88.8 °F 66.9 °F 53% 29.96 in 10.0 mi Variable 3.5 mph - N/A   Partly Cloudy
2:53 PM 87.1 °F 88.9 °F 64.9 °F 48% 29.94 in 10.0 mi Calm Calm - N/A   Clear
3:53 PM 86.0 °F 88.2 °F 66.0 °F 51% 29.95 in 10.0 mi Variable 3.5 mph - N/A   Clear
4:53 PM 84.0 °F 86.3 °F 66.0 °F 55% 29.93 in 10.0 mi Calm Calm - N/A   Clear
5:53 PM 86.0 °F 87.6 °F 64.9 °F 49% 29.92 in 10.0 mi East 3.5 mph - N/A   Clear
6:53 PM 84.9 °F 88.2 °F 68.0 °F 57% 29.93 in 10.0 mi Calm Calm - N/A   Unknown
7:53 PM 78.1 °F - 68.0 °F 71% 29.95 in 10.0 mi East 3.5 mph - N/A   Clear
8:53 PM 73.0 °F - 69.1 °F 87% 29.95 in 10.0 mi Calm Calm - N/A   Clear
9:53 PM 72.0 °F - 68.0 °F 87% 29.97 in 10.0 mi Calm Calm - N/A   Clear
10:53 PM 70.0 °F - 66.9 °F 90% 29.98 in 10.0 mi Calm Calm - N/A   Clear
11:53 PM 69.1 °F - 66.0 °F 90% 29.98 in 10.0 mi Calm Calm - N/A   Clear